Weather History for Aurora, OR

Change the Weather History Date:

Tuesday, April 23, 2013

  Actual Average Record
Temperature  
Mean Temperature 55 °F -  
Max Temperature 69 °F - 82 °F (2012)
Min Temperature 38 °F - 35 °F (2002)
Degree Days  
Heating Degree Days 11    
Month to date heating degree days 330  
Since 1 July heating degree days 3984  
Cooling Degree Days 0    
Month to date cooling degree days 0  
Year to date cooling degree days 0  
Growing Degree Days 5 (Base 50)    
Moisture  
Dew Point 32 °F    
Average Humidity 46    
Maximum Humidity 73    
Minimum Humidity 19    
Precipitation  
Precipitation 0.00 in - 0.82 in (2003)
Month to date precipitation 1.90  
Year to date precipitation 7.91  
Sea Level Pressure  
Sea Level Pressure 30.27 in    
Wind  
Wind Speed 8 mph (NNE)    
Max Wind Speed 17 mph    
Max Gust Speed 25 mph    
Visibility 10 miles    
Events      
T = Trace of Precipitation, MM = Missing Value Source: NWS Daily Summary

Daily Weather History Graph

Daily Weather History Graph

Search for Another Location

Airport:

Trip Planner

Search our weather history database for the weather conditions in past years. The results will help you decide how hot, cold, wet, or windy it might be!

Date:

Astronomy

Apr. 23, 2013 Rise Set
Actual Time 6:11 AM PDT 8:07 PM PDT
Civil Twilight 5:40 AM PDT 8:39 PM PDT
Nautical Twilight 5:01 AM PDT 9:18 PM PDT
Astronomical Twilight 4:19 AM PDT 10:01 PM PDT
Moon 6:04 PM PDT (4/23) 4:49 AM PDT (4/23)
Length of Visible Light 14h 59m
Length of Day
13h 55m
Waxing Gibbous, 94% of the Moon is Illuminated
Apr 23
Waxing Gibbous
Apr 25
Full
May 2
Last Quarter
May 9
New
May 17
First Quarter

Hourly Weather History & Observations

Time (PDT) Temp. Windchill Dew Point Humidity Pressure Visibility Wind Dir Wind Speed Gust Speed Precip Events Conditions
12:53 AM 46.0 °F 43.9 °F 34.0 °F 63% 30.39 in 10.0 mi NNE 4.6 mph - N/A   Clear
1:53 AM 46.0 °F 43.1 °F 35.1 °F 66% 30.38 in 10.0 mi North 5.8 mph - N/A   Clear
2:53 AM 43.0 °F 39.5 °F 34.0 °F 71% 30.36 in 10.0 mi NNE 5.8 mph - N/A   Clear
3:53 AM 44.1 °F - 33.1 °F 65% 30.35 in 10.0 mi Calm Calm - N/A   Clear
4:53 AM 41.0 °F 37.1 °F 33.1 °F 73% 30.35 in 10.0 mi NNE 5.8 mph - N/A   Clear
5:53 AM 42.1 °F 36.6 °F 32.0 °F 67% 30.34 in 10.0 mi North 9.2 mph - N/A   Clear
6:53 AM 42.1 °F 36.6 °F 33.1 °F 70% 30.32 in 10.0 mi North 9.2 mph - N/A   Clear
7:53 AM 46.0 °F 40.6 °F 34.0 °F 63% 30.32 in 10.0 mi NNE 11.5 mph - N/A   Clear
8:53 AM 48.9 °F - 36.0 °F 61% 30.32 in 10.0 mi North 10.4 mph - N/A   Clear
9:53 AM 53.1 °F - 37.0 °F 55% 30.30 in 10.0 mi NE 9.2 mph - N/A   Clear
10:53 AM 57.0 °F - 37.0 °F 47% 30.29 in 10.0 mi Variable 4.6 mph - N/A   Clear
11:53 AM 60.1 °F - 35.1 °F 39% 30.27 in 10.0 mi East 5.8 mph - N/A   Clear
12:53 PM 64.0 °F - 33.1 °F 31% 30.25 in 10.0 mi NNW 6.9 mph - N/A   Clear
1:53 PM 66.9 °F - 32.0 °F 27% 30.24 in 10.0 mi North 13.8 mph 21.9 mph N/A   Clear
2:53 PM 68.0 °F - 30.0 °F 24% 30.22 in 10.0 mi North 13.8 mph 19.6 mph N/A   Clear
3:53 PM 69.1 °F - 30.0 °F 23% 30.19 in 10.0 mi North 11.5 mph - N/A   Clear
4:53 PM 68.0 °F - 28.0 °F 22% 30.17 in 10.0 mi NNE 12.7 mph - N/A   Clear
5:53 PM 68.0 °F - 25.0 °F 20% 30.16 in 10.0 mi NNE 15.0 mph 18.4 mph N/A   Clear
6:53 PM 64.9 °F - 28.0 °F 25% 30.16 in 10.0 mi North 9.2 mph - N/A   Clear
7:53 PM 61.0 °F - 28.9 °F 30% 30.17 in 10.0 mi NNE 6.9 mph - N/A   Clear
8:53 PM 57.0 °F - 30.9 °F 37% 30.18 in 10.0 mi North 6.9 mph - N/A   Clear
9:53 PM 55.9 °F - 30.9 °F 39% 30.19 in 10.0 mi NNE 5.8 mph - N/A   Clear
10:53 PM 55.9 °F - 30.0 °F 37% 30.22 in 10.0 mi NE 3.5 mph - N/A   Clear
11:53 PM 52.0 °F - 32.0 °F 47% 30.23 in 10.0 mi Calm Calm - N/A   Clear